CRYOSAT 2 1 36508U 10013A 21111.60248902 .00000060 00000-0 14041-4 0 9994 2 36508 92.0178 182.1865 0003976 225.9741 134.1139 14.51907576584944 SL-24 R/B 1 36509U 10013B 21111.51211982 .00000033 00000-0 18496-4 0 9991 2 36509 91.9256 46.7686 0273435 311.7200 46.0873 13.93416666561232 SL-24 DEB 1 36510U 10013C 21111.28830900 .00000380 00000-0 72581-4 0 9994 2 36510 92.0230 197.8747 0026814 108.9614 251.4509 14.63345937588288